カタログに戻る

SHIYAN 24C 01

運用中科学SSO
NORAD 58650·PAYLOAD·🇨🇳 China

打ち上げ Dec 25, 2023 から South China Sea Launch Area

Loading…

次のパス (今後24時間)

TLE

古いSource: Space-Track

元期: Jun 17, 2026, 14:51 UTC

1 58650U 23206A   26168.61922103  .00001252  00000-0  10997-3 0  9993
2 58650  97.4068 136.3876 0003448 148.7532 211.3897 14.98238962135375

AllMySatでSHIYAN 24C 01をリアルタイム追跡

Download on the App Store